This demonstration page uses our WeatherBlox Daily Observations layout. Learn more.

Left ArrowRight Arrow

53.62937, 11.41316

Hourly Observations for October 21, 2021

Temp ( °F °C ) Dew Point ( °F °C ) Humidity (%) Winds ( mph kmh ) Pressure ( in mb ) Visibility ( mi km ) Precip ( " mm )
6:20 am 06:20 Mostly Cloudy with Light Rain 55 13 55 13 100 100 VRB 5 7 29.03 983 6 9 N/A
6:50 am 06:50 Mostly Cloudy with Light Rain 57 14 55 13 94 94 SE 12 19 29.00 982 6 9 N/A
7:20 am 07:20 Mostly Cloudy 55 13 52 11 88 88 S 20 31 29.00 982 30 48 N/A
7:50 am 07:50 Mostly Cloudy 55 13 50 10 82 82 SSW 21 33 29.03 983 30 48 N/A
8:20 am 08:20 Mostly Cloudy 54 12 46 8 77 77 SSW 23 37 29.03 983 30 48 N/A
8:50 am 08:50 Partly Cloudy 54 12 48 9 82 82 SSW 18 30 29.03 983 30 48 N/A
9:20 am 09:20 Mostly Cloudy with Light Showers 52 11 48 9 88 88 S 15 24 29.03 983 5 8 N/A
9:50 am 09:50 Mostly Cloudy with Rain 52 11 50 10 94 94 S 9 15 29.00 982 3 5 N/A
10:20 am 10:20 Mostly Cloudy with Light Rain 52 11 50 10 94 94 SSW 17 28 29.00 982 5 8 N/A
10:50 am 10:50 Mostly Cloudy 52 11 48 9 88 88 SW 15 24 29.03 983 4 7 N/A
11:20 am 11:20 Mostly Cloudy with Drizzle 50 10 48 9 94 94 WSW 12 19 29.06 984 30 48 N/A
11:50 am 11:50 Partly Cloudy 50 10 46 8 88 88 WSW 12 19 29.12 986 30 48 N/A
12:20 pm 12:20 Partly Cloudy 50 10 48 9 94 94 SW 14 22 29.18 988 30 48 N/A
12:50 pm 12:50 Partly Cloudy with Light Rain 52 11 48 9 88 88 SW 15 24 29.21 989 30 48 N/A
1:20 pm 13:20 Partly Cloudy 52 11 48 9 88 88 WSW 13 20 29.24 990 30 48 N/A
1:50 pm 13:50 Mostly Cloudy with Showers Nearby 52 11 46 8 82 82 WSW 14 22 29.27 991 30 48 N/A
2:20 pm 14:20 Partly Cloudy with Showers Nearby 52 11 45 7 77 77 WSW 12 19 29.29 992 30 48 N/A
2:50 pm 14:50 Partly Cloudy with Showers Nearby 54 12 43 6 67 67 SW 13 20 29.32 993 30 48 N/A
3:20 pm 15:20 Partly Cloudy with Showers Nearby 54 12 43 6 67 67 WSW 16 26 29.35 994 30 48 N/A
3:50 pm 15:50 Mostly Sunny 52 11 43 6 72 72 WSW 13 20 29.35 994 30 48 N/A
4:20 pm 16:20 Mostly Sunny 52 11 41 5 67 67 W 13 20 29.38 995 30 48 N/A
4:50 pm 16:50 Partly Cloudy with Showers Nearby 50 10 39 4 67 67 W 16 26 29.41 996 30 48 N/A
5:20 pm 17:20 Partly Cloudy with Showers Nearby 48 9 41 5 76 76 W 12 19 29.44 997 30 48 N/A
5:50 pm 17:50 Mostly Sunny 46 8 43 6 87 87 SW 10 17 29.44 997 30 48 N/A
6:20 pm 18:20 Partly Cloudy with Showers Nearby 46 8 43 6 87 87 W 9 15 29.47 998 30 48 N/A
6:50 pm 18:50 Partly Cloudy 46 8 37 3 71 71 VRB 10 17 29.47 998 30 48 N/A
7:20 pm 19:20 Partly Cloudy 46 8 41 5 82 82 WSW 10 17 29.50 999 30 48 N/A
7:50 pm 19:50 Mostly Clear 45 7 41 5 87 87 WSW 10 17 29.50 999 30 48 N/A
8:20 pm 20:20 Partly Cloudy with Light Rain 45 7 39 4 81 81 W 13 20 29.53 1000 30 48 N/A
8:50 pm 20:50 Mostly Clear 43 6 39 4 87 87 WSW 10 17 29.56 1001 7 11 N/A
9:20 pm 21:20 Partly Cloudy 43 6 39 4 87 87 WSW 9 15 29.56 1001 30 48 N/A
9:50 pm 21:50 Partly Cloudy 45 7 37 3 76 76 W 9 15 29.59 1002 30 48 N/A
10:20 pm 22:20 Partly Cloudy 43 6 37 3 81 81 WSW 10 17 29.59 1002 30 48 N/A
10:50 pm 22:50 Mostly Clear 43 6 37 3 81 81 WSW 8 13 29.62 1003 30 48 N/A
11:20 pm 23:20 Mostly Cloudy 43 6 39 4 87 87 VRB 7 11 29.62 1003 30 48 N/A
11:50 pm 23:50 Partly Cloudy 43 6 39 4 87 87 WSW 7 11 29.62 1003 30 48 N/A

Powered by AerisWeather